EW7356 Weather Reports


Display with metric or nautical units.
time (UTC)temp
F
wind
direction
speed
MPH
gust
MPH
rain 1hr
in
rain 24hr
in
rain mn
in
humidity
%
barometer
mb
20260905143532 67 323 1.0 9.0 0.00 0.00 0.00 76 1010.8
20260905143102 67 347 2.0 10.0 0.00 0.00 0.00 73 1010.8
20260905142527 67 326 4.0 11.0 0.00 0.00 0.00 73 1010.8
20260905142029 67 324 3.0 11.0 0.00 0.00 0.00 74 1010.7
20260905141550 67 5 3.0 11.0 0.00 0.00 0.00 76 1010.7
20260905141030 67 334 2.0 11.0 0.00 0.00 0.00 75 1010.7
20260905140532 67 342 2.0 10.0 0.00 0.00 0.00 76 1010.9
20260905140050 66 305 3.0 9.0 0.00 0.00 0.00 77 1010.8
20260905135530 65 26 2.0 9.0 0.00 0.00 0.00 78 1010.8
20260905135031 65 306 3.0 9.0 0.00 0.00 0.00 78 1010.8
20260905134602 65 12 2.0 8.0 0.00 0.00 0.00 81 1010.8
20260905134031 64 244 1.0 6.0 0.00 0.00 0.00 81 1010.8
20260905133530 64 262 1.0 6.0 0.00 0.00 0.00 81 1010.6
20260905133052 64 318 2.0 6.0 0.00 0.00 0.00 81 1010.6
20260905132530 64 9 3.0 5.0 0.00 0.00 0.00 81 1010.5
20260905132028 64 288 1.0 7.0 0.00 0.00 0.00 82 1010.7
20260905131549 64 298 2.0 8.0 0.00 0.00 0.00 82 1010.6
20260905131030 64 334 3.0 8.0 0.00 0.00 0.00 82 1010.5
20260905130535 64 15 2.0 9.0 0.00 0.00 0.00 84 1010.2
20260905130051 63 344 2.0 9.0 0.00 0.00 0.00 85 1010.4
20260905125527 63 344 2.0 10.0 0.00 0.00 0.00 85 1010.6
20260905125031 62 0 4.0 10.0 0.00 0.00 0.00 85 1010.5
20260905124551 63 269 3.0 10.0 0.00 0.00 0.00 85 1010.4
20260905124034 63 242 2.0 12.0 0.00 0.00 0.00 85 1010.3
20260905123530 63 309 3.0 12.0 0.00 0.00 0.00 85 1010.3
20260905123043 62 5 5.0 12.0 0.00 0.00 0.00 85 1010.2
20260905122528 62 36 3.0 9.0 0.00 0.00 0.00 87 1010.1
20260905122033 62 323 3.0 9.0 0.00 0.00 0.00 88 1010.1
20260905121549 61 5 2.0 8.0 0.00 0.00 0.00 88 1010.2
20260905121030 61 352 2.0 10.0 0.00 0.00 0.00 89 1010.0
20260905120530 61 330 3.0 10.0 0.00 0.00 0.00 89 1010.2
20260905120053 60 300 1.0 11.0 0.00 0.00 0.00 91 1010.2
20260905115529 60 16 3.0 11.0 0.00 0.00 0.00 92 1010.2
20260905115029 59 5 1.0 7.0 0.00 0.00 0.00 93 1010.3
20260905114559 59 239 1.0 7.0 0.00 0.00 0.00 92 1010.2
20260905114030 59 251 1.0 4.0 0.00 0.00 0.00 92 1010.2
20260905113530 59 250 1.0 4.0 0.00 0.00 0.00 92 1010.2
20260905113045 59 0 0.0 2.0 0.00 0.00 0.00 93 1010.2
20260905112530 59 0 0.0 3.0 0.00 0.00 0.00 93 1010.2
20260905112035 59 0 0.0 4.0 0.00 0.00 0.00 93 1010.1
20260905111608 59 241 1.0 7.0 0.00 0.00 0.00 93 1010.0
20260905111029 59 277 0.0 7.0 0.00 0.00 0.00 93 1009.9
20260905110529 59 255 2.0 7.0 0.00 0.00 0.00 93 1010.0
20260905110055 59 0 2.0 7.0 0.00 0.00 0.00 93 1010.0
20260905105530 59 254 1.0 6.0 0.00 0.00 0.00 93 1009.9
20260905105031 58 0 1.0 6.0 0.00 0.00 0.00 94 1009.9
20260905104608 58 326 0.0 6.0 0.00 0.00 0.00 94 1009.9
20260905104032 58 258 1.0 4.0 0.00 0.00 0.00 94 1009.9
20260905103529 58 234 2.0 4.0 0.00 0.00 0.00 94 1009.8
20260905103045 58 254 2.0 4.0 0.00 0.00 0.00 94 1009.7
20260905102530 58 272 1.0 3.0 0.00 0.00 0.00 94 1009.7
20260905102028 58 272 0.0 2.0 0.00 0.00 0.00 94 1009.8
20260905101555 58 272 0.0 1.0 0.00 0.00 0.00 94 1009.8
20260905101027 58 0 0.0 1.0 0.00 0.00 0.00 94 1009.8
20260905100527 57 0 0.0 2.0 0.00 0.00 0.00 94 1009.6
20260905100052 57 272 0.0 2.0 0.00 0.00 0.00 94 1009.5
20260905095529 58 0 0.0 2.0 0.00 0.00 0.00 94 1009.4
20260905095030 57 0 0.0 4.0 0.00 0.00 0.00 93 1009.4
20260905094642 58 277 0.0 7.0 0.00 0.00 0.00 93 1009.3
20260905094029 58 0 1.0 7.0 0.00 0.00 0.00 93 1009.3
20260905093527 58 259 1.0 4.0 0.00 0.00 0.00 93 1009.3
20260905093104 58 299 0.0 4.0 0.00 0.00 0.00 93 1009.3
20260905092529 58 234 0.0 4.0 0.00 0.00 0.00 93 1009.4
20260905092031 58 292 1.0 4.0 0.00 0.00 0.00 93 1009.4
20260905091556 58 289 0.0 4.0 0.00 0.00 0.00 93 1009.4
20260905091027 58 0 0.0 4.0 0.00 0.00 0.00 93 1009.3
20260905090530 58 0 0.0 4.0 0.00 0.00 0.00 93 1009.5
20260905090053 58 0 1.0 4.0 0.00 0.00 0.00 93 1009.3
20260905085529 58 348 1.0 7.0 0.00 0.00 0.00 93 1009.2
20260905085034 58 0 1.0 7.0 0.00 0.00 0.00 93 1009.2
20260905084601 58 0 1.0 7.0 0.00 0.00 0.00 93 1009.2
20260905084029 58 0 1.0 6.0 0.00 0.00 0.00 93 1009.1
20260905083531 58 254 1.0 6.0 0.00 0.00 0.00 93 1009.2
20260905083045 58 263 2.0 6.0 0.00 0.00 0.00 92 1009.2
20260905082530 58 257 2.0 4.0 0.00 0.00 0.00 92 1009.1
20260905082030 58 279 1.0 5.0 0.00 0.00 0.00 92 1009.1
20260905081542 58 0 1.0 5.0 0.00 0.00 0.00 92 1009.2
20260905081027 58 263 0.0 4.0 0.00 0.00 0.00 92 1009.2
20260905080530 58 0 0.0 4.0 0.00 0.00 0.00 92 1009.3
20260905080105 58 272 0.0 3.0 0.00 0.00 0.00 91 1009.2
20260905075528 58 0 0.0 2.0 0.00 0.00 0.00 92 1009.3
20260905075033 58 0 0.0 4.0 0.00 0.00 0.00 91 1009.2
20260905074548 58 0 0.0 8.0 0.00 0.00 0.00 92 1009.3
20260905074029 58 0 1.0 8.0 0.00 0.00 0.00 92 1009.3
20260905073530 59 282 2.0 8.0 0.00 0.00 0.00 92 1009.4
20260905073042 59 0 1.0 5.0 0.00 0.00 0.00 91 1009.4
20260905072530 59 273 1.0 5.0 0.00 0.00 0.00 91 1009.6
20260905072030 59 0 0.0 6.0 0.00 0.00 0.00 91 1009.4
20260905071548 59 325 1.0 6.0 0.00 0.00 0.00 91 1009.6
20260905071029 59 267 1.0 6.0 0.00 0.00 0.00 91 1009.6
20260905070529 59 260 2.0 6.0 0.00 0.00 0.00 91 1009.5
20260905070045 59 246 1.0 6.0 0.00 0.00 0.00 91 1009.4
20260905065534 59 271 0.0 5.0 0.00 0.00 0.00 91 1009.7
20260905065029 59 271 1.0 5.0 0.00 0.00 0.00 91 1009.7
20260905064543 59 0 1.0 5.0 0.00 0.00 0.00 91 1009.9
20260905064028 59 252 1.0 5.0 0.00 0.00 0.00 90 1009.8
20260905063529 59 329 0.0 5.0 0.00 0.00 0.00 90 1009.9
20260905063045 59 360 0.0 3.0 0.00 0.00 0.00 89 1009.8
20260905062529 60 312 0.0 3.0 0.00 0.00 0.00 89 1010.0
20260905062030 60 0 0.0 3.0 0.00 0.00 0.00 89 1009.9
20260905061556 60 0 0.0 3.0 0.00 0.00 0.00 89 1010.0
20260905061029 60 243 0.0 3.0 0.00 0.00 0.00 89 1010.0
20260905060528 60 317 1.0 3.0 0.00 0.00 0.00 89 1009.9
20260905055529 60 0 1.0 6.0 0.00 0.00 0.00 89 1009.9
20260905055028 60 0 1.0 8.0 0.00 0.00 0.00 89 1009.8
20260905054554 59 0 2.0 8.0 0.00 0.00 0.00 90 1009.7
20260905054030 59 244 2.0 8.0 0.00 0.00 0.00 90 1009.7
20260905053530 59 253 1.0 7.0 0.00 0.00 0.00 90 1009.8
20260905053042 59 291 1.0 3.0 0.00 0.00 0.00 90 1009.8
20260905052527 59 254 0.0 2.0 0.00 0.00 0.00 89 1009.9
20260905052030 60 275 1.0 2.0 0.00 0.00 0.00 88 1009.9
20260905051603 60 0 0.0 3.0 0.00 0.00 0.00 88 1009.9
20260905051027 60 0 0.0 5.0 0.00 0.00 0.00 87 1010.0
20260905050530 60 336 1.0 5.0 0.00 0.00 0.00 87 1010.1
20260905050044 60 309 0.0 3.0 0.00 0.00 0.00 87 1010.0
20260905045529 60 0 0.0 3.0 0.00 0.00 0.00 87 1010.1
20260905045030 60 0 0.0 1.0 0.00 0.00 0.00 87 1010.1
20260905044552 61 0 0.0 1.0 0.00 0.00 0.00 86 1010.0
20260905044029 61 0 0.0 1.0 0.00 0.00 0.00 85 1010.0
20260905043529 61 0 0.0 1.0 0.00 0.00 0.00 85 1010.1
20260905043049 61 313 0.0 2.0 0.00 0.00 0.00 85 1010.1
20260905042530 61 0 0.0 5.0 0.00 0.00 0.00 84 1010.1
20260905042029 62 0 1.0 5.0 0.00 0.00 0.00 84 1010.1
20260905041548 62 336 1.0 5.0 0.00 0.00 0.00 84 1010.0
20260905041028 62 324 1.0 5.0 0.00 0.00 0.00 84 1010.0
20260905040529 62 340 1.0 3.0 0.00 0.00 0.00 84 1009.9
20260905040104 62 316 0.0 3.0 0.00 0.00 0.00 84 1009.9
20260905035530 62 326 0.0 9.0 0.00 0.00 0.00 83 1010.0
20260905035029 62 291 1.0 9.0 0.00 0.00 0.00 83 1009.9
20260905034550 62 250 1.0 5.0 0.00 0.00 0.00 82 1010.1
20260905034027 63 309 1.0 5.0 0.00 0.00 0.00 82 1009.9
20260905033529 63 281 1.0 4.0 0.00 0.00 0.00 82 1010.0
20260905033052 63 287 1.0 4.0 0.00 0.00 0.00 81 1010.0
20260905032528 63 0 1.0 3.0 0.00 0.00 0.00 81 1010.1
20260905032029 63 0 0.0 3.0 0.00 0.00 0.00 81 1010.1
20260905031552 63 18 0.0 4.0 0.00 0.00 0.00 80 1010.0
20260905031030 64 18 1.0 4.0 0.00 0.00 0.00 80 1010.1
20260905030529 63 352 0.0 4.0 0.00 0.00 0.00 80 1010.1
20260905025532 63 0 0.0 4.0 0.00 0.00 0.00 81 1010.1
20260905025027 63 0 1.0 4.0 0.00 0.00 0.00 81 1010.0
20260905024600 63 302 0.0 2.0 0.00 0.00 0.00 80 1010.2
20260905024029 63 0 0.0 2.0 0.00 0.00 0.00 80 1010.2
20260905023529 64 0 0.0 6.0 0.00 0.00 0.00 80 1010.4
20260905023045 64 0 0.0 7.0 0.00 0.00 0.00 81 1010.3
20260905022529 64 183 2.0 7.0 0.00 0.00 0.00 80 1010.2
20260905022029 64 160 1.0 4.0 0.00 0.00 0.00 80 1010.3
20260905021555 64 148 0.0 2.0 0.00 0.00 0.00 80 1010.2
20260905021031 64 0 0.0 2.0 0.00 0.00 0.00 80 1010.2
20260905020529 64 0 0.0 2.0 0.00 0.00 0.00 80 1010.1
20260905020052 64 0 0.0 5.0 0.00 0.00 0.00 79 1010.3
20260905015533 64 138 0.0 5.0 0.00 0.00 0.00 79 1010.3
20260905015032 64 156 1.0 5.0 0.00 0.00 0.00 78 1010.3
20260905014550 64 39 1.0 5.0 0.00 0.00 0.00 78 1010.4
20260905014029 64 257 1.0 5.0 0.00 0.00 0.00 78 1010.4
20260905013529 64 286 0.0 5.0 0.00 0.00 0.00 78 1010.4
20260905013106 64 360 1.0 10.0 0.00 0.00 0.00 78 1010.5
20260905012529 64 352 1.0 10.0 0.00 0.00 0.00 78 1010.4
20260905012030 64 290 1.0 4.0 0.00 0.00 0.00 79 1010.5
20260905011544 64 204 1.0 4.0 0.00 0.00 0.00 79 1010.4
20260905011030 64 299 1.0 4.0 0.00 0.00 0.00 78 1010.3
20260905010530 65 227 0.0 2.0 0.00 0.00 0.00 79 1010.4
20260905010047 65 283 0.0 2.0 0.00 0.00 0.00 78 1010.5
20260905005528 65 0 0.0 2.0 0.00 0.00 0.00 78 1010.6
20260905005030 65 0 0.0 2.0 0.00 0.00 0.00 78 1010.7
20260905004546 65 0 0.0 2.0 0.00 0.00 0.00 78 1010.7
20260905004027 65 232 0.0 2.0 0.00 0.00 0.00 78 1010.7
20260905003531 65 0 0.0 1.0 0.00 0.00 0.00 78 1010.7
20260905003044 65 0 0.0 2.0 0.00 0.00 0.00 77 1010.7
20260905002530 65 315 0.0 2.0 0.00 0.00 0.00 77 1010.7
20260905002030 65 315 0.0 2.0 0.00 0.00 0.00 77 1010.5
20260905001543 66 325 0.0 2.0 0.00 0.00 0.00 76 1010.2
20260905001030 66 0 0.0 7.0 0.00 0.00 0.00 76 1010.3
20260905000531 66 0 1.0 7.0 0.00 0.00 0.00 76 1010.4
20260905000055 66 0 1.0 4.0 0.00 0.00 0.00 76 1010.2
20260904235528 66 296 0.0 8.0 0.00 0.00 0.00 76 1010.3
20260904235030 66 252 1.0 8.0 0.00 0.00 0.00 75 1010.2
20260904234548 66 346 1.0 7.0 0.00 0.00 0.00 75 1010.1
20260904234031 66 221 1.0 7.0 0.00 0.00 0.00 75 1010.1
20260904233530 66 360 0.0 5.0 0.00 0.00 0.00 75 1010.0
20260904233040 67 317 1.0 4.0 0.00 0.00 0.00 74 1010.0
20260904232530 67 346 1.0 4.0 0.00 0.00 0.00 74 1010.1
20260904232030 67 334 0.0 6.0 0.00 0.00 0.00 73 1010.0
20260904231538 68 0 0.0 6.0 0.00 0.00 0.00 72 1009.9
20260904231029 68 269 2.0 6.0 0.00 0.00 0.00 71 1009.8
20260904230530 68 296 1.0 6.0 0.00 0.00 0.00 70 1009.9
20260904230105 69 259 1.0 8.0 0.00 0.00 0.00 69 1010.0
20260904225529 69 261 2.0 8.0 0.00 0.00 0.00 68 1010.1
20260904225027 70 323 2.0 10.0 0.00 0.00 0.00 67 1010.0
20260904224547 70 360 2.0 10.0 0.00 0.00 0.00 67 1010.0
20260904224030 70 340 2.0 9.0 0.00 0.00 0.00 66 1009.9
20260904223531 70 28 3.0 9.0 0.00 0.00 0.00 67 1009.9
20260904223103 70 311 1.0 8.0 0.00 0.00 0.00 67 1009.8
20260904222534 70 337 1.0 9.0 0.00 0.00 0.00 66 1009.8
20260904222032 70 273 3.0 9.0 0.00 0.00 0.00 66 1009.8
20260904221543 70 283 2.0 9.0 0.00 0.00 0.00 66 1009.8
20260904221030 70 340 2.0 9.0 0.00 0.00 0.00 66 1010.0
20260904220533 71 333 1.0 11.0 0.00 0.00 0.00 66 1010.1
20260904220052 71 0 4.0 11.0 0.00 0.00 0.00 65 1010.0
20260904215533 71 291 2.0 10.0 0.00 0.00 0.00 65 1009.9
20260904215031 71 333 1.0 10.0 0.00 0.00 0.00 64 1010.0
20260904214552 71 227 2.0 10.0 0.00 0.00 0.00 64 1009.9
20260904214030 72 328 3.0 10.0 0.00 0.00 0.00 64 1010.0
20260904213530 72 311 3.0 9.0 0.00 0.00 0.00 62 1010.0
20260904213045 72 327 3.0 9.0 0.00 0.00 0.00 61 1009.9
20260904212530 72 9 3.0 9.0 0.00 0.00 0.00 61 1009.9
20260904212028 73 304 3.0 9.0 0.00 0.00 0.00 60 1009.9
20260904211542 73 329 3.0 11.0 0.00 0.00 0.00 60 1009.9
20260904211029 73 306 2.0 18.0 0.00 0.00 0.00 59 1010.0
20260904210529 73 212 4.0 18.0 0.00 0.00 0.00 59 1009.8
20260904210048 75 236 2.0 16.0 0.00 0.00 0.00 58 1009.7
20260904205529 75 244 3.0 10.0 0.00 0.00 0.00 56 1009.9
20260904205032 76 254 3.0 10.0 0.00 0.00 0.00 55 1009.8
20260904204553 76 237 4.0 12.0 0.00 0.00 0.00 55 1009.6
20260904204029 76 315 3.0 12.0 0.00 0.00 0.00 57 1009.7
20260904203529 75 265 4.0 11.0 0.00 0.00 0.00 56 1009.8
20260904203053 75 340 4.0 14.0 0.00 0.00 0.00 58 1009.8
20260904202530 76 242 4.0 14.0 0.00 0.00 0.00 56 1009.8
20260904202029 76 286 3.0 11.0 0.00 0.00 0.00 57 1009.7
20260904201603 76 303 2.0 9.0 0.00 0.00 0.00 57 1009.7
20260904201033 76 293 1.0 10.0 0.00 0.00 0.00 60 1009.6
20260904200532 75 298 3.0 10.0 0.00 0.00 0.00 56 1009.8
20260904200108 76 297 3.0 10.0 0.00 0.00 0.00 57 1009.7
20260904195533 75 207 4.0 13.0 0.00 0.00 0.00 58 1009.7
20260904195029 75 249 4.0 14.0 0.00 0.00 0.00 56 1009.8
20260904194545 76 5 5.0 14.0 0.00 0.00 0.00 53 1009.7
20260904194031 76 22 5.0 14.0 0.00 0.00 0.00 52 1009.7
20260904193531 77 33 4.0 13.0 0.00 0.00 0.00 54 1009.8
20260904193052 77 328 5.0 13.0 0.00 0.00 0.00 55 1009.7
20260904192529 77 32 5.0 13.0 0.00 0.00 0.00 56 1009.8
20260904192032 77 321 3.0 11.0 0.00 0.00 0.00 56 1009.8
20260904191549 76 46 6.0 11.0 0.00 0.00 0.00 56 1009.8
20260904191031 76 289 3.0 11.0 0.00 0.00 0.00 54 1009.7
20260904190531 76 10 4.0 13.0 0.00 0.00 0.00 55 1009.9
20260904190044 76 182 4.0 15.0 0.00 0.00 0.00 55 1009.8
20260904185529 76 309 3.0 15.0 0.00 0.00 0.00 59 1009.8
20260904185029 76 128 5.0 15.0 0.00 0.00 0.00 56 1009.9
20260904184554 77 17 2.0 12.0 0.00 0.00 0.00 56 1009.8
20260904184030 76 46 4.0 16.0 0.00 0.00 0.00 56 1009.8
20260904183530 76 326 4.0 16.0 0.00 0.00 0.00 57 1009.8
20260904183050 75 32 7.0 16.0 0.00 0.00 0.00 56 1010.0
20260904182532 75 9 4.0 14.0 0.00 0.00 0.00 59 1010.1
20260904182035 75 5 4.0 12.0 0.00 0.00 0.00 56 1010.3
20260904181547 76 13 5.0 13.0 0.00 0.00 0.00 57 1010.4
20260904181033 76 326 4.0 13.0 0.00 0.00 0.00 61 1010.1
20260904180531 75 289 6.0 13.0 0.00 0.00 0.00 60 1010.2
20260904180043 75 352 4.0 13.0 0.00 0.00 0.00 62 1010.1
20260904175529 75 345 3.0 16.0 0.00 0.00 0.00 62 1010.0
20260904175030 76 312 6.0 16.0 0.00 0.00 0.00 61 1010.0
20260904174550 76 310 4.0 14.0 0.00 0.00 0.00 61 1009.8
20260904174029 75 327 4.0 14.0 0.00 0.00 0.00 64 1009.9
20260904173531 74 346 2.0 14.0 0.00 0.00 0.00 67 1010.0
20260904173047 74 351 5.0 12.0 0.00 0.00 0.00 65 1010.1
20260904172530 74 344 2.0 10.0 0.00 0.00 0.00 67 1010.1
20260904172028 74 346 3.0 10.0 0.00 0.00 0.00 66 1010.3
20260904171615 75 5 4.0 10.0 0.00 0.00 0.00 64 1010.3
20260904171032 76 288 1.0 11.0 0.00 0.00 0.00 64 1010.1
20260904170533 75 46 3.0 11.0 0.00 0.00 0.00 65 1010.1
20260904170051 75 257 3.0 11.0 0.00 0.00 0.00 63 1010.1
20260904165530 75 322 5.0 11.0 0.00 0.00 0.00 65 1010.2
20260904165030 75 237 4.0 10.0 0.00 0.00 0.00 65 1010.2
20260904164549 75 53 3.0 10.0 0.00 0.00 0.00 64 1010.3
20260904164031 75 317 3.0 12.0 0.00 0.00 0.00 66 1010.3
20260904163530 75 267 2.0 12.0 0.00 0.00 0.00 68 1010.3
20260904163053 75 350 3.0 11.0 0.00 0.00 0.00 65 1010.4
20260904162529 74 100 3.0 12.0 0.00 0.00 0.00 67 1010.4
20260904162029 74 5 3.0 12.0 0.00 0.00 0.00 66 1010.5
20260904161559 75 338 4.0 15.0 0.00 0.00 0.00 68 1010.6
20260904161029 74 234 4.0 15.0 0.00 0.00 0.00 66 1010.5
20260904160532 74 350 6.0 15.0 0.00 0.00 0.00 66 1010.7
20260904160058 74 340 5.0 13.0 0.00 0.00 0.00 66 1010.6
20260904155531 74 298 3.0 13.0 0.00 0.00 0.00 69 1010.6
20260904155031 73 360 3.0 13.0 0.00 0.00 0.00 71 1010.6
20260904154551 73 319 7.0 14.0 0.00 0.00 0.00 68 1010.6
20260904154032 73 55 6.0 14.0 0.00 0.00 0.00 66 1010.6
20260904153534 73 339 2.0 13.0 0.00 0.00 0.00 69 1010.9
20260904153106 73 10 4.0 12.0 0.00 0.00 0.00 68 1010.7
20260904152530 73 259 3.0 12.0 0.00 0.00 0.00 69 1010.8
20260904152030 72 261 3.0 15.0 0.00 0.00 0.00 70 1010.7
20260904151554 72 5 4.0 15.0 0.00 0.00 0.00 70 1010.9
20260904151030 72 352 5.0 14.0 0.00 0.00 0.00 68 1010.7
20260904150530 72 340 3.0 15.0 0.00 0.00 0.00 69 1010.9
20260904150053 72 349 7.0 15.0 0.00 0.00 0.00 69 1010.8
20260904145531 72 360 4.0 12.0 0.00 0.00 0.00 71 1010.8
20260904145032 71 42 4.0 12.0 0.00 0.00 0.00 74 1010.7
20260904144550 71 248 4.0 12.0 0.00 0.00 0.00 73 1010.7
20260904144031 71 293 3.0 12.0 0.00 0.00 0.00 75 1010.7